| time (UTC) | temp F | wind direction | speed knots | gust knots | rain 1hr in | rain 24hr in | rain mn in | humidity % | barometer mb |
| 20260508012653 | 55 | 110 | 0.0 | 0.9 | 0.00 | 1.13 | 0.00 | 66 | 1017.1 |
| 20260508012154 | 55 | 117 | 0.0 | 0.9 | 0.00 | 1.13 | 0.00 | 66 | 1017.1 |
| 20260508011656 | 56 | 117 | 0.0 | 0.9 | 0.00 | 1.13 | 0.00 | 66 | 1017.1 |
| 20260508011157 | 56 | 136 | 0.0 | 0.9 | 0.00 | 1.13 | 0.00 | 66 | 1017.1 |
| 20260508010658 | 56 | 205 | 0.0 | 1.7 | 0.00 | 1.13 | 0.00 | 65 | 1017.1 |
| 20260508010159 | 56 | 190 | 0.0 | 0.9 | 0.00 | 1.13 | 0.00 | 64 | 1017.1 |
| 20260508005700 | 56 | 180 | 0.0 | 0.0 | 0.00 | 1.13 | 0.00 | 63 | 1017.1 |
| 20260508005202 | 56 | 180 | 0.0 | 0.0 | 0.00 | 1.13 | 0.00 | 63 | 1017.1 |
| 20260508004703 | 56 | 180 | 0.0 | 0.0 | 0.00 | 1.13 | 0.00 | 62 | 1017.1 |
| 20260508004204 | 56 | 180 | 0.0 | 0.0 | 0.00 | 1.13 | 0.00 | 61 | 1017.0 |
| 20260508003705 | 56 | 180 | 0.0 | 0.0 | 0.00 | 1.13 | 0.00 | 61 | 1017.0 |
| 20260508003207 | 56 | 180 | 0.0 | 0.0 | 0.00 | 1.13 | 0.00 | 61 | 1017.0 |
| 20260508002708 | 56 | 180 | 0.0 | 0.0 | 0.00 | 1.13 | 0.00 | 61 | 1017.0 |
| 20260508002209 | 56 | 180 | 0.0 | 0.0 | 0.00 | 1.13 | 0.00 | 61 | 1017.0 |
| 20260508001710 | 56 | 180 | 0.0 | 0.0 | 0.00 | 1.13 | 0.00 | 62 | 1017.1 |
| 20260508001211 | 56 | 180 | 0.0 | 0.0 | 0.00 | 1.13 | 0.00 | 62 | 1017.1 |
| 20260508000713 | 56 | 180 | 0.0 | 0.0 | 0.00 | 1.13 | 0.00 | 61 | 1017.1 |
| 20260508000214 | 56 | 180 | 0.0 | 0.0 | 0.00 | 1.13 | 0.00 | 60 | 1017.1 |
| 20260507235715 | 57 | 180 | 0.0 | 0.0 | 0.00 | 1.13 | 0.00 | 59 | 1017.1 |
| 20260507235216 | 57 | 180 | 0.0 | 0.0 | 0.00 | 1.13 | 0.00 | 59 | 1017.0 |
| 20260507234219 | 57 | 180 | 0.0 | 0.0 | 0.00 | 1.13 | 0.00 | 59 | 1017.0 |
| 20260507233720 | 57 | 180 | 0.0 | 0.0 | 0.00 | 1.13 | 0.00 | 58 | 1017.0 |
| 20260507233221 | 57 | 180 | 0.0 | 0.0 | 0.00 | 1.13 | 0.00 | 58 | 1017.0 |
| 20260507232723 | 58 | 180 | 0.0 | 0.0 | 0.00 | 1.13 | 0.00 | 58 | 1017.0 |
| 20260507232224 | 58 | 180 | 0.0 | 0.0 | 0.00 | 1.13 | 0.00 | 58 | 1017.1 |
| 20260507231725 | 58 | 180 | 0.0 | 0.0 | 0.00 | 1.13 | 0.00 | 58 | 1017.1 |
| 20260507231226 | 58 | 180 | 0.0 | 0.0 | 0.00 | 1.13 | 0.00 | 58 | 1017.1 |
| 20260507230727 | 58 | 180 | 0.0 | 0.0 | 0.00 | 1.13 | 0.00 | 57 | 1017.1 |
| 20260507230229 | 58 | 180 | 0.0 | 0.0 | 0.00 | 1.13 | 0.00 | 57 | 1017.1 |
| 20260507225730 | 58 | 180 | 0.0 | 0.0 | 0.00 | 1.13 | 0.00 | 57 | 1017.1 |
| 20260507225231 | 58 | 180 | 0.0 | 0.0 | 0.00 | 1.13 | 0.00 | 57 | 1017.1 |
| 20260507224732 | 58 | 180 | 0.0 | 0.0 | 0.00 | 1.13 | 0.00 | 57 | 1017.1 |
| 20260507223735 | 58 | 180 | 0.0 | 0.0 | 0.00 | 1.13 | 0.00 | 57 | 1017.2 |
| 20260507223236 | 58 | 180 | 0.0 | 0.0 | 0.00 | 1.13 | 0.00 | 57 | 1017.1 |
| 20260507222737 | 59 | 180 | 0.0 | 0.0 | 0.00 | 1.13 | 0.00 | 56 | 1017.1 |
| 20260507222238 | 59 | 180 | 0.0 | 0.0 | 0.00 | 1.13 | 0.00 | 56 | 1017.0 |
| 20260507221739 | 59 | 180 | 0.0 | 0.0 | 0.00 | 1.13 | 0.00 | 56 | 1017.0 |
| 20260507221241 | 59 | 180 | 0.0 | 0.0 | 0.00 | 1.13 | 0.00 | 56 | 1017.0 |
| 20260507220742 | 59 | 180 | 0.0 | 0.0 | 0.00 | 1.13 | 0.00 | 55 | 1017.0 |
| 20260507220243 | 59 | 180 | 0.0 | 0.0 | 0.00 | 1.13 | 0.00 | 54 | 1017.1 |
| 20260507215744 | 59 | 180 | 0.0 | 0.0 | 0.00 | 1.13 | 0.00 | 54 | 1017.1 |
| 20260507215245 | 59 | 180 | 0.0 | 0.0 | 0.00 | 1.13 | 0.00 | 54 | 1017.0 |
| 20260507214747 | 59 | 180 | 0.0 | 0.0 | 0.00 | 1.13 | 0.00 | 55 | 1017.0 |
| 20260507214248 | 59 | 180 | 0.0 | 0.0 | 0.00 | 1.13 | 0.00 | 55 | 1016.9 |
| 20260507213749 | 59 | 180 | 0.0 | 0.0 | 0.00 | 1.13 | 0.00 | 54 | 1016.9 |
| 20260507213250 | 59 | 180 | 0.0 | 0.9 | 0.00 | 1.13 | 0.00 | 54 | 1016.9 |
| 20260507212752 | 60 | 180 | 0.0 | 0.0 | 0.00 | 1.13 | 0.00 | 53 | 1016.9 |
| 20260507212253 | 60 | 180 | 0.0 | 0.0 | 0.00 | 1.13 | 0.00 | 53 | 1016.8 |
| 20260507211754 | 60 | 180 | 0.0 | 0.0 | 0.00 | 1.13 | 0.00 | 52 | 1016.8 |
| 20260507211255 | 60 | 180 | 0.0 | 0.0 | 0.00 | 1.13 | 0.00 | 52 | 1016.7 |
| 20260507210756 | 60 | 180 | 0.0 | 0.0 | 0.00 | 1.13 | 0.00 | 52 | 1016.6 |
| 20260507210257 | 60 | 180 | 0.0 | 0.0 | 0.00 | 1.13 | 0.00 | 52 | 1016.6 |
| 20260507205759 | 60 | 180 | 0.0 | 0.0 | 0.00 | 1.13 | 0.00 | 52 | 1016.5 |
| 20260507205300 | 60 | 180 | 0.0 | 0.0 | 0.00 | 1.13 | 0.00 | 52 | 1016.5 |
| 20260507204801 | 60 | 180 | 0.0 | 0.0 | 0.00 | 1.13 | 0.00 | 52 | 1016.4 |
| 20260507204302 | 60 | 180 | 0.0 | 0.0 | 0.00 | 1.13 | 0.00 | 52 | 1016.3 |
| 20260507203803 | 60 | 197 | 0.0 | 0.0 | 0.00 | 1.13 | 0.00 | 52 | 1016.3 |
| 20260507203305 | 60 | 225 | 0.0 | 0.0 | 0.00 | 1.13 | 0.00 | 52 | 1016.2 |
| 20260507202806 | 59 | 225 | 0.0 | 0.0 | 0.00 | 1.13 | 0.00 | 52 | 1016.1 |
| 20260507201808 | 59 | 225 | 0.0 | 0.0 | 0.00 | 1.13 | 0.00 | 52 | 1015.9 |
| 20260507201310 | 59 | 225 | 0.0 | 0.0 | 0.00 | 1.13 | 0.00 | 52 | 1015.9 |
| 20260507200811 | 59 | 184 | 0.0 | 0.9 | 0.00 | 1.29 | 0.00 | 52 | 1015.8 |
| 20260507200312 | 59 | 197 | 0.0 | 0.9 | 0.00 | 1.29 | 0.00 | 51 | 1015.8 |
| 20260507195813 | 60 | 182 | 0.9 | 0.9 | 0.00 | 1.29 | 0.00 | 51 | 1015.7 |
| 20260507195314 | 60 | 115 | 0.0 | 0.9 | 0.00 | 1.29 | 0.00 | 51 | 1015.7 |
| 20260507194816 | 60 | 86 | 0.0 | 0.0 | 0.00 | 1.29 | 0.00 | 50 | 1015.6 |
| 20260507194317 | 60 | 125 | 0.9 | 2.6 | 0.00 | 1.29 | 0.00 | 51 | 1015.6 |
| 20260507193818 | 60 | 144 | 0.9 | 1.7 | 0.00 | 1.29 | 0.00 | 50 | 1015.6 |
| 20260507193325 | 60 | 197 | 0.9 | 1.7 | 0.00 | 1.29 | 0.00 | 49 | 1015.7 |
| 20260507193319 | 60 | 197 | 0.9 | 1.7 | 0.00 | 1.29 | 0.00 | 49 | 1015.7 |
| 20260507192821 | 61 | 190 | 0.9 | 1.7 | 0.00 | 1.29 | 0.00 | 47 | 1015.6 |
| 20260507191823 | 61 | 180 | 0.0 | 0.0 | 0.00 | 1.29 | 0.00 | 45 | 1015.4 |
| 20260507191324 | 62 | 180 | 0.0 | 0.9 | 0.00 | 1.29 | 0.00 | 44 | 1015.2 |
| 20260507190825 | 62 | 180 | 0.0 | 0.9 | 0.00 | 1.29 | 0.00 | 44 | 1015.1 |
| 20260507190327 | 63 | 180 | 0.0 | 0.9 | 0.00 | 1.29 | 0.00 | 43 | 1015.0 |
| 20260507185828 | 63 | 180 | 0.0 | 0.9 | 0.00 | 1.29 | 0.00 | 42 | 1014.9 |
| 20260507185329 | 63 | 221 | 0.0 | 0.9 | 0.00 | 1.29 | 0.00 | 42 | 1014.8 |
| 20260507184830 | 64 | 225 | 0.0 | 0.9 | 0.00 | 1.29 | 0.00 | 41 | 1014.8 |
| 20260507184331 | 64 | 225 | 0.0 | 0.9 | 0.00 | 1.31 | 0.00 | 40 | 1014.6 |
| 20260507183833 | 65 | 218 | 0.0 | 0.9 | 0.00 | 1.31 | 0.00 | 39 | 1014.7 |
| 20260507183334 | 65 | 180 | 0.0 | 0.9 | 0.00 | 1.31 | 0.00 | 39 | 1014.7 |
| 20260507182835 | 66 | 180 | 0.0 | 0.9 | 0.00 | 1.31 | 0.00 | 38 | 1014.5 |
| 20260507182336 | 66 | 180 | 0.0 | 0.9 | 0.00 | 1.31 | 0.00 | 37 | 1014.4 |
| 20260507181339 | 69 | 228 | 0.0 | 0.9 | 0.00 | 1.31 | 0.00 | 34 | 1014.4 |
| 20260507180840 | 70 | 175 | 0.9 | 0.9 | 0.00 | 1.34 | 0.00 | 33 | 1014.3 |
| 20260507175842 | 73 | 202 | 0.9 | 1.7 | 0.00 | 2.23 | 0.00 | 30 | 1014.2 |
| 20260507174346 | 75 | 162 | 0.9 | 0.9 | 0.00 | 2.23 | 0.00 | 28 | 1014.1 |
| 20260507173847 | 75 | 168 | 0.9 | 0.9 | 0.00 | 2.23 | 0.00 | 28 | 1014.1 |
| 20260507173349 | 75 | 115 | 0.9 | 2.6 | 0.00 | 2.23 | 0.00 | 28 | 1014.1 |
| 20260507172351 | 74 | 89 | 0.9 | 1.7 | 0.00 | 2.23 | 0.00 | 29 | 1014.0 |
| 20260507171852 | 72 | 131 | 0.9 | 1.7 | 0.00 | 2.23 | 0.00 | 31 | 1014.1 |
| 20260507170855 | 71 | 116 | 0.9 | 1.7 | 0.00 | 2.23 | 0.00 | 31 | 1013.9 |
| 20260507170356 | 73 | 65 | 0.9 | 1.7 | 0.00 | 2.23 | 0.00 | 30 | 1013.8 |
| 20260507165857 | 74 | 157 | 0.9 | 2.6 | 0.00 | 2.23 | 0.00 | 29 | 1013.9 |
| 20260507165358 | 76 | 97 | 1.7 | 1.7 | 0.00 | 2.23 | 0.00 | 28 | 1013.9 |
| 20260507164900 | 77 | 196 | 0.9 | 2.6 | 0.00 | 2.23 | 0.00 | 27 | 1013.8 |
| 20260507164401 | 78 | 163 | 0.9 | 1.7 | 0.00 | 2.23 | 0.00 | 27 | 1013.8 |
| 20260507163907 | 78 | 193 | 0.9 | 2.6 | 0.00 | 2.23 | 0.00 | 28 | 1013.7 |
| 20260507163902 | 78 | 193 | 0.9 | 2.6 | 0.00 | 2.23 | 0.00 | 28 | 1013.7 |
| 20260507163408 | 79 | 264 | 0.9 | 1.7 | 0.00 | 2.23 | 0.00 | 27 | 1013.7 |
| 20260507163403 | 79 | 264 | 0.9 | 1.7 | 0.00 | 2.23 | 0.00 | 27 | 1013.7 |
| 20260507162904 | 80 | 107 | 0.9 | 1.7 | 0.00 | 2.23 | 0.00 | 26 | 1013.8 |
| 20260507162406 | 81 | 74 | 0.9 | 2.6 | 0.00 | 2.23 | 0.00 | 27 | 1013.7 |
| 20260507161408 | 81 | 180 | 0.9 | 2.6 | 0.00 | 2.23 | 0.00 | 27 | 1013.6 |
| 20260507160909 | 80 | 134 | 0.9 | 1.7 | 0.00 | 2.23 | 0.00 | 27 | 1013.5 |
| 20260507160416 | 81 | 241 | 0.9 | 2.6 | 0.00 | 2.23 | 0.00 | 27 | 1013.5 |
| 20260507160410 | 81 | 241 | 0.9 | 2.6 | 0.00 | 2.23 | 0.00 | 27 | 1013.5 |
| 20260507155912 | 79 | 72 | 1.7 | 2.6 | 0.00 | 2.23 | 0.00 | 28 | 1013.6 |
| 20260507155413 | 78 | 146 | 1.7 | 2.6 | 0.00 | 2.23 | 0.00 | 28 | 1013.8 |
| 20260507154914 | 79 | 131 | 1.7 | 2.6 | 0.00 | 2.23 | 0.00 | 28 | 1013.6 |
| 20260507154415 | 80 | 106 | 0.9 | 1.7 | 0.00 | 2.23 | 0.00 | 26 | 1013.4 |
| 20260507153917 | 82 | 123 | 0.9 | 1.7 | 0.00 | 2.23 | 0.00 | 24 | 1013.3 |
| 20260507153418 | 85 | 203 | 0.9 | 2.6 | 0.00 | 2.23 | 0.00 | 23 | 1013.1 |
| 20260507152919 | 87 | 121 | 0.9 | 1.7 | 0.00 | 2.23 | 0.00 | 22 | 1013.3 |
| 20260507152420 | 87 | 101 | 0.9 | 2.6 | 0.00 | 2.23 | 0.00 | 22 | 1013.2 |
| 20260507151927 | 87 | 93 | 0.9 | 1.7 | 0.00 | 2.23 | 0.00 | 22 | 1013.4 |
| 20260507151921 | 87 | 93 | 0.9 | 1.7 | 0.00 | 2.23 | 0.00 | 22 | 1013.4 |
| 20260507151423 | 86 | 158 | 0.9 | 2.6 | 0.00 | 2.23 | 0.00 | 23 | 1013.1 |
| 20260507150924 | 84 | 228 | 1.7 | 3.5 | 0.00 | 2.23 | 0.00 | 23 | 1013.1 |
| 20260507150425 | 84 | 57 | 0.9 | 2.6 | 0.00 | 2.23 | 0.00 | 25 | 1013.0 |
| 20260507145926 | 81 | 64 | 0.9 | 2.6 | 0.00 | 2.23 | 0.00 | 27 | 1013.1 |
| 20260507145427 | 77 | 195 | 1.7 | 2.6 | 0.00 | 2.23 | 0.00 | 29 | 1013.2 |
| 20260507144928 | 74 | 52 | 0.9 | 2.6 | 0.00 | 2.23 | 0.00 | 31 | 1013.2 |
| 20260507144430 | 74 | 124 | 0.9 | 2.6 | 0.00 | 2.23 | 0.00 | 31 | 1013.2 |
| 20260507143931 | 74 | 117 | 1.7 | 1.7 | 0.00 | 2.23 | 0.00 | 31 | 1013.3 |
| 20260507143437 | 76 | 179 | 1.7 | 2.6 | 0.00 | 2.23 | 0.00 | 29 | 1013.3 |
| 20260507143432 | 76 | 179 | 1.7 | 2.6 | 0.00 | 2.23 | 0.00 | 29 | 1013.3 |
| 20260507142934 | 78 | 153 | 1.7 | 3.5 | 0.00 | 2.23 | 0.00 | 27 | 1013.2 |
| 20260507142436 | 80 | 87 | 1.7 | 4.3 | 0.71 | 2.23 | 0.00 | 26 | 1013.1 |
| 20260507142431 | 80 | 87 | 1.7 | 4.3 | 0.71 | 2.23 | 0.00 | 26 | 1013.1 |
| 20260507141934 | 82 | 84 | 2.6 | 6.1 | 0.71 | 2.23 | 0.00 | 24 | 1013.3 |
| 20260507141929 | 82 | 84 | 2.6 | 6.1 | 0.71 | 2.23 | 0.00 | 24 | 1013.3 |
| 20260507141427 | 82 | 121 | 1.7 | 3.5 | 0.71 | 2.23 | 0.00 | 24 | 1013.4 |
| 20260507140925 | 82 | 150 | 1.7 | 2.6 | 4.86 | 2.23 | 0.00 | 25 | 1013.2 |
| 20260507140423 | 80 | 63 | 9.6 | 41.7 | 1.13 | 2.23 | 0.00 | 26 | 1013.2 |
| 20260507135919 | 80 | 91 | 1.7 | 2.6 | 1.13 | 2.23 | 0.00 | 25 | 1013.3 |
| 20260507135417 | 84 | 66 | 0.9 | 1.7 | 1.13 | 2.23 | 0.00 | 24 | 1013.1 |
| 20260507134915 | 86 | 96 | 0.9 | 2.6 | 1.13 | 2.23 | 0.00 | 22 | 1013.2 |
| 20260507134413 | 90 | 47 | 0.9 | 1.7 | 1.13 | 2.23 | 0.00 | 21 | 1013.2 |
| 20260507133911 | 88 | 47 | 0.9 | 2.6 | 1.13 | 2.23 | 0.00 | 22 | 1013.3 |
| 20260507133410 | 86 | 59 | 1.7 | 4.3 | 1.13 | 2.23 | 0.00 | 22 | 1013.3 |
| 20260507132907 | 85 | 54 | 3.5 | 30.4 | 1.13 | 2.23 | 0.00 | 23 | 1013.3 |
| 20260507132405 | 84 | 59 | 0.9 | 1.7 | 1.06 | 2.16 | 0.00 | 24 | 1013.3 |
| 20260507131902 | 87 | 78 | 0.9 | 1.7 | 1.06 | 2.16 | 0.00 | 22 | 1013.3 |
| 20260507131400 | 86 | 44 | 12.2 | 46.9 | 1.06 | 2.16 | 0.00 | 23 | 1013.2 |
| 20260507130854 | 88 | 106 | 8.7 | 85.2 | 6.50 | 1.74 | 0.00 | 22 | 1013.5 |
| 20260507130336 | 87 | 198 | 1.7 | 3.5 | 0.00 | 1.09 | 0.00 | 22 | 1013.5 |
| 20260507125837 | 91 | 41 | 0.9 | 2.6 | 0.00 | 1.09 | 0.00 | 21 | 1013.5 |
| 20260507124839 | 90 | 90 | 1.7 | 2.6 | 0.00 | 1.09 | 0.00 | 21 | 1013.5 |
| 20260507124346 | 88 | 193 | 0.9 | 2.6 | 0.00 | 1.09 | 0.00 | 23 | 1013.3 |
| 20260507124340 | 88 | 193 | 0.9 | 2.6 | 0.00 | 1.09 | 0.00 | 23 | 1013.3 |
| 20260507123842 | 86 | 301 | 1.7 | 2.6 | 0.00 | 1.09 | 0.00 | 24 | 1013.5 |
| 20260507123343 | 84 | 59 | 1.7 | 2.6 | 0.00 | 1.09 | 0.00 | 25 | 1013.4 |
| 20260507122849 | 84 | 27 | 0.9 | 2.6 | 0.00 | 1.09 | 0.00 | 26 | 1013.4 |
| 20260507122844 | 84 | 27 | 0.9 | 2.6 | 0.00 | 1.09 | 0.00 | 26 | 1013.4 |
| 20260507122331 | 80 | 0 | 0.9 | 1.7 | 0.00 | 1.09 | 0.00 | 30 | 1013.3 |
| 20260507122325 | 80 | 0 | 0.9 | 1.7 | 0.00 | 1.09 | 0.00 | 30 | 1013.3 |
| 20260507121827 | 75 | 171 | 0.9 | 1.7 | 0.00 | 1.09 | 0.00 | 34 | 1013.3 |
| 20260507121328 | 73 | 171 | 0.9 | 2.6 | 0.00 | 1.09 | 0.00 | 36 | 1013.3 |
| 20260507120829 | 72 | 135 | 0.0 | 0.9 | 0.00 | 1.09 | 0.00 | 37 | 1013.3 |
| 20260507120330 | 71 | 138 | 0.9 | 1.7 | 0.00 | 1.09 | 0.00 | 36 | 1013.4 |
| 20260507115831 | 70 | 81 | 1.7 | 2.6 | 0.00 | 1.09 | 0.00 | 36 | 1013.6 |
| 20260507115333 | 70 | 101 | 0.9 | 2.6 | 0.00 | 1.09 | 0.00 | 37 | 1013.4 |
| 20260507114834 | 70 | 75 | 0.9 | 2.6 | 0.00 | 1.09 | 0.00 | 37 | 1013.5 |
| 20260507114335 | 70 | 192 | 0.9 | 2.6 | 0.00 | 1.09 | 0.00 | 39 | 1013.5 |
| 20260507113841 | 69 | 72 | 1.7 | 3.5 | 0.00 | 1.09 | 0.00 | 39 | 1013.6 |
| 20260507113836 | 69 | 72 | 1.7 | 3.5 | 0.00 | 1.09 | 0.00 | 39 | 1013.6 |
| 20260507113337 | 69 | 37 | 0.9 | 1.7 | 0.00 | 1.09 | 0.00 | 39 | 1013.5 |
| 20260507112839 | 69 | 83 | 0.9 | 2.6 | 0.00 | 1.09 | 0.00 | 38 | 1013.6 |
| 20260507112340 | 69 | 59 | 1.7 | 2.6 | 0.00 | 1.09 | 0.00 | 38 | 1013.6 |
| 20260507111841 | 68 | 84 | 0.9 | 1.7 | 0.00 | 1.09 | 0.00 | 39 | 1013.3 |
| 20260507111342 | 68 | 33 | 0.9 | 2.6 | 0.00 | 1.09 | 0.00 | 40 | 1013.5 |
| 20260507110844 | 68 | 64 | 0.9 | 1.7 | 0.00 | 1.09 | 0.00 | 40 | 1013.4 |
| 20260507110345 | 67 | 77 | 0.9 | 1.7 | 0.00 | 1.09 | 0.00 | 40 | 1013.4 |
| 20260507105846 | 67 | 63 | 0.9 | 2.6 | 0.00 | 1.09 | 0.00 | 41 | 1013.3 |
| 20260507105347 | 67 | 36 | 0.9 | 1.7 | 0.00 | 1.09 | 0.00 | 42 | 1013.4 |
| 20260507104848 | 67 | 224 | 0.9 | 1.7 | 0.00 | 1.09 | 0.00 | 43 | 1013.5 |
| 20260507103851 | 66 | 87 | 0.9 | 1.7 | 0.00 | 1.09 | 0.00 | 43 | 1013.5 |
| 20260507103352 | 66 | 107 | 0.9 | 1.7 | 0.00 | 1.09 | 0.00 | 43 | 1013.4 |
| 20260507102854 | 66 | 72 | 0.9 | 1.7 | 0.00 | 1.09 | 0.00 | 43 | 1013.4 |
| 20260507102354 | 67 | 239 | 0.9 | 1.7 | 0.00 | 1.09 | 0.00 | 44 | 1013.5 |
| 20260507101856 | 67 | 184 | 0.9 | 1.7 | 0.00 | 1.09 | 0.00 | 43 | 1013.4 |
| 20260507101357 | 67 | 106 | 0.9 | 1.7 | 0.00 | 1.09 | 0.00 | 43 | 1013.3 |
| 20260507100858 | 67 | 90 | 0.0 | 0.9 | 0.00 | 1.09 | 0.00 | 46 | 1013.4 |
| 20260507100359 | 66 | 90 | 0.0 | 0.9 | 0.00 | 1.09 | 0.00 | 45 | 1013.4 |
| 20260507095900 | 65 | 72 | 0.9 | 2.6 | 0.00 | 1.09 | 0.00 | 46 | 1013.5 |
| 20260507095402 | 65 | 229 | 0.9 | 1.7 | 0.00 | 1.09 | 0.00 | 47 | 1013.5 |
| 20260507094903 | 66 | 122 | 0.9 | 1.7 | 0.00 | 1.09 | 0.00 | 47 | 1013.4 |
| 20260507094405 | 66 | 45 | 0.9 | 0.9 | 0.00 | 1.09 | 0.00 | 46 | 1013.3 |
| 20260507093905 | 66 | 45 | 0.9 | 1.7 | 0.00 | 1.09 | 0.00 | 46 | 1013.3 |
| 20260507093407 | 66 | 45 | 0.0 | 0.9 | 0.00 | 1.09 | 0.00 | 46 | 1013.2 |
| 20260507092908 | 65 | 45 | 0.9 | 1.7 | 0.00 | 1.09 | 0.00 | 46 | 1013.1 |
| 20260507092409 | 64 | 45 | 0.9 | 1.7 | 0.00 | 1.09 | 0.00 | 48 | 1013.0 |
| 20260507091910 | 64 | 45 | 0.9 | 2.6 | 0.00 | 1.09 | 0.00 | 49 | 1013.1 |
| 20260507090840 | 64 | 55 | 0.9 | 2.6 | 0.00 | 1.09 | 0.00 | 50 | 1013.2 |
| 20260507090835 | 64 | 55 | 0.9 | 2.6 | 0.00 | 1.09 | 0.00 | 50 | 1013.2 |
| 20260507090336 | 64 | 45 | 0.9 | 1.7 | 0.00 | 1.09 | 0.00 | 50 | 1013.2 |
| 20260507085837 | 64 | 69 | 0.9 | 0.9 | 0.00 | 1.09 | 0.00 | 51 | 1013.1 |
| 20260507085344 | 0 | 224 | 0.9 | 2.6 | 0.00 | 0.00 | 0.00 | ||
| 20260507085338 | 63 | 224 | 0.9 | 2.6 | 0.00 | 1.09 | 0.00 | 51 | 1013.0 |
| 20260507084839 | 63 | 97 | 0.9 | 2.6 | 0.00 | 1.09 | 0.00 | 51 | 1013.1 |
| 20260507084340 | 63 | 37 | 0.9 | 1.7 | 0.00 | 1.09 | 0.00 | 51 | 1013.0 |
| 20260507083842 | 63 | 94 | 0.9 | 1.7 | 0.00 | 1.09 | 0.00 | 51 | 1012.9 |
| 20260507083343 | 63 | 72 | 1.7 | 2.6 | 0.00 | 1.09 | 0.00 | 51 | 1012.8 |
| 20260507082844 | 63 | 67 | 1.7 | 2.6 | 0.00 | 1.09 | 0.00 | 51 | 1012.9 |
| 20260507082345 | 63 | 110 | 0.9 | 1.7 | 0.00 | 1.09 | 0.00 | 51 | 1012.8 |
| 20260507081846 | 63 | 88 | 1.7 | 2.6 | 0.00 | 1.09 | 0.00 | 51 | 1012.8 |
| 20260507080849 | 63 | 110 | 0.9 | 1.7 | 0.00 | 1.09 | 0.00 | 52 | 1012.8 |
| 20260507080350 | 62 | 59 | 1.7 | 4.3 | 0.00 | 1.09 | 0.00 | 52 | 1012.8 |
| 20260507075851 | 62 | 74 | 1.7 | 2.6 | 0.00 | 1.09 | 0.00 | 52 | 1012.9 |
| 20260507075352 | 62 | 64 | 1.7 | 3.5 | 0.00 | 1.09 | 0.00 | 53 | 1013.0 |
| 20260507074854 | 62 | 83 | 0.9 | 1.7 | 0.00 | 1.09 | 0.00 | 53 | 1012.9 |
| 20260507074355 | 62 | 61 | 1.7 | 3.5 | 0.00 | 1.09 | 0.00 | 54 | 1012.7 |
| 20260507073901 | 62 | 58 | 0.9 | 1.7 | 0.00 | 1.09 | 0.00 | 54 | 1012.8 |
| 20260507073856 | 62 | 58 | 0.9 | 1.7 | 0.00 | 1.09 | 0.00 | 54 | 1012.8 |
| 20260507073357 | 62 | 52 | 0.9 | 2.6 | 0.00 | 1.09 | 0.00 | 55 | 1012.8 |
| 20260507072859 | 62 | 92 | 0.9 | 1.7 | 0.00 | 1.09 | 0.00 | 56 | 1012.8 |
| 20260507072405 | 62 | 49 | 0.9 | 1.7 | 0.00 | 1.09 | 0.00 | 55 | 1012.6 |
| 20260507072400 | 62 | 49 | 0.9 | 1.7 | 0.00 | 1.09 | 0.00 | 55 | 1012.6 |
| 20260507071901 | 62 | 45 | 0.9 | 1.7 | 0.00 | 1.09 | 0.00 | 56 | 1012.6 |
| 20260507071402 | 62 | 92 | 0.9 | 2.6 | 0.00 | 1.09 | 0.00 | 55 | 1012.7 |
| 20260507070903 | 62 | 104 | 0.9 | 2.6 | 0.00 | 1.09 | 0.00 | 56 | 1012.6 |
| 20260507070405 | 62 | 182 | 0.9 | 2.6 | 0.00 | 1.09 | 0.00 | 56 | 1012.5 |
| 20260507065906 | 62 | 139 | 0.9 | 1.7 | 0.00 | 1.09 | 0.00 | 55 | 1012.5 |
| 20260507065407 | 62 | 121 | 0.0 | 0.9 | 0.00 | 1.09 | 0.00 | 55 | 1012.4 |
| 20260507064908 | 62 | 102 | 0.9 | 1.7 | 0.00 | 1.09 | 0.00 | 56 | 1012.4 |
| 20260507064410 | 62 | 92 | 0.9 | 1.7 | 0.00 | 1.09 | 0.00 | 57 | 1012.4 |
| 20260507063911 | 62 | 72 | 0.9 | 1.7 | 0.00 | 1.09 | 0.00 | 57 | 1012.2 |
| 20260507063412 | 62 | 90 | 0.0 | 0.0 | 0.00 | 1.09 | 0.00 | 58 | 1012.1 |
| 20260507062914 | 61 | 81 | 0.0 | 0.9 | 0.00 | 1.09 | 0.00 | 59 | 1012.1 |
| 20260507062414 | 61 | 90 | 0.0 | 0.0 | 0.00 | 1.09 | 0.00 | 61 | 1012.1 |
| 20260507061916 | 60 | 90 | 0.0 | 0.0 | 0.00 | 1.09 | 0.00 | 61 | 1012.1 |
| 20260507061417 | 60 | 90 | 0.0 | 0.9 | 0.00 | 1.09 | 0.00 | 61 | 1012.0 |
| 20260507060918 | 60 | 65 | 0.9 | 2.6 | 0.00 | 1.09 | 0.00 | 62 | 1012.0 |
| 20260507060425 | 60 | 45 | 0.0 | 0.9 | 0.00 | 1.09 | 0.00 | 63 | 1012.0 |
| 20260507060420 | 60 | 45 | 0.0 | 0.9 | 0.00 | 1.09 | 0.00 | 63 | 1012.0 |
| 20260507055921 | 59 | 45 | 0.9 | 0.9 | 0.00 | 1.09 | 0.00 | 63 | 1011.9 |
| 20260507055422 | 59 | 86 | 0.9 | 2.6 | 0.00 | 1.09 | 0.00 | 64 | 1012.0 |
| 20260507054928 | 59 | 90 | 0.9 | 0.9 | 0.00 | 1.09 | 0.00 | 64 | 1011.9 |
| 20260507054923 | 59 | 90 | 0.9 | 0.9 | 0.00 | 1.09 | 0.00 | 64 | 1011.9 |
| 20260507054424 | 59 | 76 | 0.0 | 0.9 | 0.00 | 1.09 | 0.00 | 65 | 1011.8 |
| 20260507053925 | 59 | 80 | 0.0 | 0.9 | 0.00 | 1.09 | 0.00 | 65 | 1011.7 |
| 20260507053432 | 59 | 90 | 0.0 | 0.9 | 0.00 | 1.09 | 0.00 | 65 | 1011.7 |
| 20260507053427 | 59 | 90 | 0.0 | 0.9 | 0.00 | 1.09 | 0.00 | 65 | 1011.7 |
| 20260507052933 | 59 | 90 | 0.9 | 0.9 | 0.00 | 1.09 | 0.00 | 65 | 1011.6 |
| 20260507052928 | 59 | 90 | 0.9 | 0.9 | 0.00 | 1.09 | 0.00 | 65 | 1011.6 |
| 20260507052434 | 59 | 98 | 0.0 | 0.0 | 0.00 | 1.09 | 0.00 | 65 | 1011.5 |
| 20260507052429 | 59 | 98 | 0.0 | 0.0 | 0.00 | 1.09 | 0.00 | 65 | 1011.5 |
| 20260507051930 | 59 | 225 | 0.0 | 0.0 | 0.00 | 1.09 | 0.00 | 66 | 1011.5 |
| 20260507051432 | 59 | 225 | 0.0 | 0.0 | 0.00 | 1.09 | 0.00 | 66 | 1011.4 |
| 20260507050934 | 59 | 225 | 0.0 | 0.0 | 0.00 | 1.09 | 0.00 | 67 | 1011.3 |
| 20260507050439 | 59 | 225 | 0.0 | 0.0 | 0.00 | 1.09 | 0.00 | 67 | 1011.2 |
| 20260507050434 | 59 | 225 | 0.0 | 0.0 | 0.00 | 1.09 | 0.00 | 67 | 1011.2 |
| 20260507045940 | 58 | 225 | 0.0 | 0.0 | 0.00 | 1.09 | 0.00 | 67 | 1011.2 |
| 20260507045935 | 58 | 225 | 0.0 | 0.0 | 0.00 | 1.09 | 0.00 | 67 | 1011.2 |
| 20260507045443 | 58 | 225 | 0.0 | 0.0 | 0.00 | 1.09 | 0.00 | 67 | 1011.1 |
| 20260507045437 | 58 | 225 | 0.0 | 0.0 | 0.00 | 1.09 | 0.00 | 67 | 1011.1 |
| 20260507044944 | 58 | 225 | 0.0 | 0.0 | 0.00 | 0.00 | 0.00 | 67 | 1011.0 |
| 20260507044938 | 58 | 225 | 0.0 | 0.0 | 0.00 | 1.09 | 0.00 | 67 | 1011.0 |
| 20260507044439 | 58 | 225 | 0.0 | 0.0 | 0.00 | 1.09 | 0.00 | 68 | 1011.0 |
| 20260507043945 | 58 | 225 | 0.0 | 0.0 | 0.00 | 1.09 | 0.00 | 68 | 1011.0 |
| 20260507043940 | 58 | 225 | 0.0 | 0.0 | 0.00 | 1.09 | 0.00 | 68 | 1011.0 |
| 20260507043442 | 58 | 225 | 0.0 | 0.0 | 0.00 | 1.09 | 0.00 | 68 | 1011.0 |
| 20260507042943 | 58 | 225 | 0.0 | 0.0 | 0.00 | 1.09 | 0.00 | 68 | 1010.9 |
| 20260507042444 | 58 | 225 | 0.0 | 0.0 | 0.00 | 1.09 | 0.00 | 68 | 1010.8 |
| 20260507041945 | 58 | 225 | 0.0 | 0.0 | 0.00 | 1.09 | 0.00 | 68 | 1010.6 |
| 20260507041447 | 57 | 225 | 0.0 | 0.0 | 0.00 | 1.09 | 0.00 | 68 | 1010.6 |
| 20260507040953 | 57 | 225 | 0.0 | 0.0 | 0.00 | 1.09 | 0.00 | 69 | 1010.5 |
| 20260507040948 | 57 | 225 | 0.0 | 0.0 | 0.00 | 1.09 | 0.00 | 69 | 1010.5 |
| 20260507040454 | 57 | 225 | 0.0 | 0.0 | 0.00 | 1.09 | 0.00 | 69 | 1010.4 |
| 20260507040449 | 57 | 225 | 0.0 | 0.0 | 0.00 | 1.09 | 0.00 | 69 | 1010.4 |
| 20260507035955 | 57 | 225 | 0.0 | 0.0 | 0.00 | 1.09 | 0.00 | 69 | 1010.3 |
| 20260507035950 | 57 | 225 | 0.0 | 0.0 | 0.00 | 1.09 | 0.00 | 69 | 1010.3 |
| 20260507035451 | 57 | 225 | 0.0 | 0.0 | 0.00 | 1.09 | 0.00 | 69 | 1010.3 |
| 20260507034953 | 57 | 225 | 0.0 | 0.0 | 0.00 | 1.09 | 0.00 | 69 | 1010.3 |
| 20260507034454 | 57 | 225 | 0.0 | 0.0 | 0.00 | 1.09 | 0.00 | 69 | 1010.2 |
| 20260507033955 | 57 | 222 | 0.9 | 0.9 | 0.00 | 1.09 | 0.00 | 69 | 1010.1 |
| 20260507033501 | 57 | 90 | 0.0 | 0.9 | 0.00 | 1.09 | 0.00 | 69 | 1010.0 |
| 20260507033456 | 57 | 90 | 0.0 | 0.9 | 0.00 | 1.09 | 0.00 | 69 | 1010.0 |
| 20260507032957 | 57 | 90 | 0.0 | 0.9 | 0.00 | 1.09 | 0.00 | 68 | 1010.0 |
| 20260507032459 | 57 | 90 | 0.0 | 0.0 | 0.00 | 1.09 | 0.00 | 67 | 1010.0 |
| 20260507032000 | 57 | 90 | 0.0 | 0.9 | 0.00 | 1.09 | 0.00 | 67 | 1010.0 |
| 20260507031501 | 57 | 90 | 0.0 | 0.9 | 0.00 | 1.09 | 0.00 | 66 | 1010.0 |
| 20260507031008 | 58 | 90 | 0.0 | 0.0 | 0.00 | 1.09 | 0.00 | 66 | 1010.0 |
| 20260507031002 | 58 | 90 | 0.0 | 0.0 | 0.00 | 1.09 | 0.00 | 66 | 1010.0 |
| 20260507030509 | 58 | 90 | 0.0 | 0.9 | 0.00 | 1.09 | 0.00 | 66 | 1009.9 |
| 20260507030504 | 58 | 90 | 0.0 | 0.9 | 0.00 | 1.09 | 0.00 | 66 | 1009.9 |
| 20260507030005 | 58 | 90 | 0.0 | 0.0 | 0.00 | 1.09 | 0.00 | 66 | 1009.7 |
| 20260507025506 | 58 | 90 | 0.0 | 0.9 | 0.00 | 1.09 | 0.00 | 66 | 1009.8 |
| 20260507025007 | 58 | 175 | 0.0 | 0.9 | 0.00 | 1.09 | 0.00 | 65 | 1009.6 |
| 20260507024514 | 58 | 180 | 0.0 | 0.0 | 0.00 | 0.00 | 0.00 | 27 | |
| 20260507024508 | 58 | 180 | 0.0 | 0.0 | 0.00 | 1.09 | 0.00 | 63 | 1009.4 |
| 20260507024015 | 58 | 180 | 0.0 | 0.0 | 0.00 | 1.09 | 0.00 | 63 | 1009.3 |
| 20260507024010 | 58 | 180 | 0.0 | 0.0 | 0.00 | 1.09 | 0.00 | 63 | 1009.3 |
| 20260507023516 | 58 | 180 | 0.0 | 0.0 | 0.00 | 1.09 | 0.00 | 63 | 1009.3 |
| 20260507023511 | 58 | 180 | 0.0 | 0.0 | 0.00 | 1.09 | 0.00 | 63 | 1009.3 |
| 20260507023012 | 58 | 180 | 0.0 | 0.0 | 0.00 | 1.09 | 0.00 | 63 | 1009.2 |
| 20260507022514 | 58 | 180 | 0.0 | 0.0 | 0.00 | 1.09 | 0.00 | 63 | 1009.1 |
| 20260507022014 | 59 | 180 | 0.0 | 0.0 | 0.00 | 1.09 | 0.00 | 63 | 1009.1 |
| 20260507021521 | 59 | 180 | 0.0 | 0.0 | 0.00 | 1.09 | 0.00 | 63 | 1009.1 |
| 20260507021516 | 59 | 180 | 0.0 | 0.0 | 0.00 | 1.09 | 0.00 | 63 | 1009.1 |
| 20260507021017 | 59 | 180 | 0.0 | 0.0 | 0.00 | 1.09 | 0.00 | 63 | 1009.2 |
| 20260507020518 | 59 | 180 | 0.0 | 0.9 | 0.00 | 1.09 | 0.00 | 63 | 1009.2 |
| 20260507020019 | 59 | 180 | 0.0 | 0.0 | 0.00 | 1.09 | 0.00 | 63 | 1009.1 |
| 20260507015521 | 59 | 180 | 0.0 | 0.0 | 0.00 | 1.09 | 0.00 | 64 | 1009.1 |
| 20260507015022 | 59 | 181 | 0.9 | 0.9 | 0.00 | 1.09 | 0.00 | 64 | 1009.2 |
| 20260507014523 | 59 | 90 | 0.9 | 0.9 | 0.00 | 1.09 | 0.00 | 66 | 1009.3 |
| 20260507014024 | 59 | 121 | 0.0 | 0.9 | 0.00 | 1.09 | 0.00 | 66 | 1009.2 |
| 20260507013530 | 59 | 149 | 0.0 | 0.9 | 0.00 | 1.09 | 0.00 | 66 | 1009.1 |
| 20260507013525 | 59 | 149 | 0.0 | 0.9 | 0.00 | 1.09 | 0.00 | 66 | 1009.1 |
| 20260507013031 | 59 | 180 | 0.0 | 0.0 | 0.00 | 1.09 | 0.00 | 65 | 1009.0 |
| 20260507013026 | 59 | 180 | 0.0 | 0.0 | 0.00 | 1.09 | 0.00 | 65 | 1009.0 |